EDW25 MMUN-LSZH

Flight info

Callsign EDW25
Flight time N/A
Altitude 39000
Route ROTG2A/12R ROTGI UM219 MYDIA Y240 SNAKR M219 CIGAR DCT CTY DCT CRG DCT ORF DCT LINND DCT ACK DCT WHALE/N0491F410 N93B SUPRY/M085F400 NATY ELSOX/M085F410 DCT GIPER DCT LULOX/N0494F410 DCT LIZAD DCT JSY DCT ARSUK DCT RESMI DCT TEPRI DCT POGZI DCT GELTA DCT MANAG DCT PEVIT DCT BLM
Aircraft A359/H-SDE2E3GHIJ3J4J5LM1ORWXY/LB1D1

Departure

Time 2026-05-03 20:54
Airport Cancún International Airport (MMUN)

Arrival

Time N/A
Airport Zürich Airport (LSZH)
Time Latitude Longitude Altitude Speed Heading
2026-05-03 20:15 21.04930 -86.88194 35 ft 0 kts 159°
2026-05-03 20:36 21.04951 -86.88202 34 ft 4 kts 159°
2026-05-03 20:36 21.04974 -86.88211 33 ft 2 kts 159°
2026-05-03 20:36 21.04997 -86.88217 32 ft 4 kts 187°
2026-05-03 20:37 21.05021 -86.88208 32 ft 4 kts 219°
2026-05-03 20:37 21.05041 -86.88189 32 ft 4 kts 218°
2026-05-03 20:37 21.05046 -86.88184 32 ft 0 kts 214°
2026-05-03 20:42 21.05038 -86.88190 34 ft 7 kts 214°
2026-05-03 20:42 21.04988 -86.88226 35 ft 9 kts 214°
2026-05-03 20:42 21.04935 -86.88264 34 ft 11 kts 214°
2026-05-03 20:43 21.04871 -86.88310 35 ft 12 kts 214°
2026-05-03 20:43 21.04798 -86.88362 35 ft 19 kts 213°
2026-05-03 20:43 21.04649 -86.88468 35 ft 21 kts 214°
2026-05-03 20:43 21.04540 -86.88545 35 ft 12 kts 213°
2026-05-03 20:44 21.04507 -86.88568 36 ft 0 kts 214°
2026-05-03 20:45 21.04481 -86.88587 36 ft 17 kts 213°
2026-05-03 20:45 21.04454 -86.88639 37 ft 3 kts 278°
2026-05-03 20:45 21.04497 -86.88724 36 ft 17 kts 304°
2026-05-03 20:45 21.04560 -86.88825 36 ft 16 kts 304°
2026-05-03 20:46 21.04618 -86.88917 36 ft 14 kts 303°
2026-05-03 20:46 21.04635 -86.88957 36 ft 0 kts 284°
2026-05-03 20:48 21.04637 -86.88967 36 ft 7 kts 283°
2026-05-03 20:48 21.04635 -86.89002 36 ft 3 kts 251°
2026-05-03 20:48 21.04629 -86.89012 37 ft 0 kts 228°
2026-05-03 20:49 21.04614 -86.89024 37 ft 0 kts 216°
2026-05-03 20:51 21.04572 -86.89055 38 ft 8 kts 215°
2026-05-03 20:52 21.04537 -86.89073 38 ft 2 kts 180°
2026-05-03 20:52 21.04498 -86.89043 38 ft 7 kts 126°
2026-05-03 20:52 21.04496 -86.89039 38 ft 0 kts 125°
2026-05-03 20:53 21.04412 -86.88906 39 ft 54 kts 123°
2026-05-03 20:53 21.04087 -86.88386 41 ft 113 kts 124°
2026-05-03 20:53 21.03549 -86.87530 57 ft 160 kts 124°
2026-05-03 20:54 21.02966 -86.86528 679 ft 156 kts 123°
2026-05-03 20:54 21.01750 -86.84360 1434 ft 191 kts 122°
2026-05-03 20:54 21.01216 -86.83022 1806 ft 210 kts 102°
2026-05-03 20:55 21.01336 -86.81378 1978 ft 238 kts 75°
2026-05-03 20:55 21.01871 -86.79613 2323 ft 257 kts 71°
2026-05-03 20:55 21.02473 -86.77783 2982 ft 262 kts 71°
2026-05-03 20:55 21.03067 -86.75927 3705 ft 265 kts 71°
2026-05-03 20:56 21.03658 -86.74042 4386 ft 269 kts 71°
2026-05-03 20:56 21.04297 -86.72142 5054 ft 273 kts 65°
2026-05-03 20:56 21.05411 -86.70487 5664 ft 278 kts 40°
2026-05-03 20:56 21.06969 -86.69256 6340 ft 281 kts 33°
2026-05-03 20:57 21.08625 -86.68101 6903 ft 286 kts 31°
2026-05-03 20:57 21.10391 -86.67120 7539 ft 287 kts 17°
2026-05-03 20:57 21.12346 -86.66801 8302 ft 284 kts
2026-05-03 20:57 21.14326 -86.66789 8784 ft 285 kts 358°
2026-05-03 20:58 21.16317 -86.66819 8952 ft 286 kts 357°
2026-05-03 20:58 21.18313 -86.66847 8968 ft 287 kts 358°
2026-05-03 20:58 21.20318 -86.66868 8966 ft 288 kts 358°
2026-05-03 20:58 21.22324 -86.66884 8966 ft 288 kts 358°
2026-05-03 20:59 21.24327 -86.66897 8966 ft 288 kts 358°
2026-05-03 20:59 21.26335 -86.66912 8966 ft 288 kts 358°
2026-05-03 20:59 21.28342 -86.66924 8997 ft 288 kts 358°
2026-05-03 20:59 21.30349 -86.66935 9334 ft 290 kts 358°
2026-05-03 21:00 21.32375 -86.66941 10086 ft 291 kts 358°
2026-05-03 21:00 21.33735 -86.66946 10430 ft 299 kts 358°
2026-05-03 21:00 21.36605 -86.66961 10806 ft 323 kts 358°
2026-05-03 21:00 21.38920 -86.66973 11068 ft 341 kts 358°
2026-05-03 21:01 21.41346 -86.66985 11312 ft 357 kts 358°
2026-05-03 21:01 21.43877 -86.66996 11598 ft 369 kts 358°
2026-05-03 21:01 21.46465 -86.67007 12075 ft 375 kts 358°
2026-05-03 21:01 21.49089 -86.67018 12593 ft 378 kts 358°
2026-05-03 21:02 21.51734 -86.67030 13135 ft 382 kts 358°
2026-05-03 21:02 21.54401 -86.67042 13650 ft 385 kts 358°
2026-05-03 21:02 21.57096 -86.67055 14118 ft 389 kts 358°
2026-05-03 21:02 21.59815 -86.67067 14548 ft 392 kts 358°
2026-05-03 21:03 21.62555 -86.67080 14989 ft 395 kts 358°
2026-05-03 21:03 21.65315 -86.67092 15426 ft 399 kts 357°
2026-05-03 21:03 21.68104 -86.67105 15855 ft 402 kts 357°
2026-05-03 21:03 21.70910 -86.67119 16282 ft 405 kts 357°
2026-05-03 21:04 21.73741 -86.67132 16712 ft 408 kts 357°
2026-05-03 21:04 21.76556 -86.67145 17141 ft 411 kts 356°
2026-05-03 21:04 21.79435 -86.67158 17540 ft 416 kts 356°
2026-05-03 21:04 21.82341 -86.67166 17935 ft 419 kts 357°
2026-05-03 21:05 21.85269 -86.66919 18332 ft 426 kts
2026-05-03 21:05 21.88204 -86.66380 18700 ft 429 kts
2026-05-03 21:05 21.91140 -86.65733 19090 ft 432 kts
2026-05-03 21:05 21.94084 -86.65033 19478 ft 434 kts
2026-05-03 21:06 21.97038 -86.64318 19837 ft 436 kts
2026-05-03 21:06 21.99999 -86.63604 19955 ft 436 kts
2026-05-03 21:06 22.02966 -86.62899 19976 ft 437 kts
2026-05-03 21:06 22.05939 -86.62202 19974 ft 437 kts
2026-05-03 21:07 22.08920 -86.61510 19974 ft 438 kts
2026-05-03 21:07 22.11897 -86.60825 19966 ft 438 kts
2026-05-03 21:07 22.14882 -86.60153 19973 ft 439 kts
2026-05-03 21:07 22.17874 -86.59486 19985 ft 439 kts
2026-05-03 21:08 22.20866 -86.58816 20017 ft 440 kts
2026-05-03 21:08 22.23877 -86.58117 20367 ft 443 kts
2026-05-03 21:08 22.26892 -86.57404 20814 ft 444 kts
2026-05-03 21:08 22.29915 -86.56688 21241 ft 446 kts
2026-05-03 21:09 22.32958 -86.55972 21624 ft 448 kts
2026-05-03 21:09 22.36023 -86.55257 22023 ft 451 kts
2026-05-03 21:09 22.39104 -86.54546 22424 ft 454 kts
2026-05-03 21:09 22.42204 -86.53828 22860 ft 456 kts
2026-05-03 21:10 22.45322 -86.53102 23239 ft 459 kts
2026-05-03 21:10 22.48412 -86.52384 23630 ft 462 kts
2026-05-03 21:10 22.51563 -86.51652 23967 ft 464 kts
2026-05-03 21:10 22.54732 -86.50916 24295 ft 467 kts
2026-05-03 21:11 22.57915 -86.50177 24652 ft 469 kts
2026-05-03 21:11 22.61119 -86.49433 25025 ft 472 kts
2026-05-03 21:11 22.64343 -86.48684 25409 ft 475 kts
2026-05-03 21:11 22.67584 -86.47931 25799 ft 478 kts
2026-05-03 21:12 22.70838 -86.47174 26204 ft 480 kts
2026-05-03 21:12 22.74117 -86.46411 26594 ft 483 kts
2026-05-03 21:12 22.77420 -86.45644 26960 ft 487 kts
2026-05-03 21:12 22.80747 -86.44873 27324 ft 491 kts
2026-05-03 21:13 22.84100 -86.44092 27725 ft 494 kts
2026-05-03 21:13 22.87469 -86.43304 28101 ft 497 kts
2026-05-03 21:13 22.90862 -86.42510 28475 ft 500 kts
2026-05-03 21:13 22.94272 -86.41711 28844 ft 503 kts
2026-05-03 21:14 22.97704 -86.40908 29200 ft 506 kts
2026-05-03 21:14 23.01155 -86.40100 29556 ft 509 kts
2026-05-03 21:14 23.04633 -86.39286 29895 ft 512 kts
2026-05-03 21:14 23.08120 -86.38470 30243 ft 513 kts
2026-05-03 21:15 23.11608 -86.37651 30611 ft 514 kts
2026-05-03 21:15 23.15117 -86.36827 30869 ft 516 kts
2026-05-03 21:15 23.18636 -86.36002 31114 ft 519 kts
2026-05-03 21:15 23.22175 -86.35173 31365 ft 522 kts
2026-05-03 21:16 23.25733 -86.34338 31607 ft 524 kts
2026-05-03 21:16 23.29297 -86.33500 31913 ft 524 kts
2026-05-03 21:16 23.32857 -86.32665 32280 ft 523 kts
2026-05-03 21:16 23.36370 -86.31838 32620 ft 523 kts
2026-05-03 21:17 23.39928 -86.30999 32967 ft 523 kts
2026-05-03 21:17 23.42333 -86.30432 33131 ft 524 kts
2026-05-03 21:17 23.47058 -86.29318 33530 ft 524 kts
2026-05-03 21:17 23.50627 -86.28476 33848 ft 524 kts
2026-05-03 21:18 23.53035 -86.27908 34048 ft 524 kts
2026-05-03 21:18 23.56552 -86.27078 34316 ft 524 kts
2026-05-03 21:18 23.60114 -86.26237 34616 ft 523 kts
2026-05-03 21:18 23.63674 -86.25396 34912 ft 522 kts